Location: ?
(35.4507°N, 139.3750°E)
Time: 11:45:51
(UTC+00:00)

Daily predictions for brighter satellites

Satellite Brightness Start Highest point End
(mag) Time Altitude Azimuth Time Altitude Azimuth Time Altitude Azimuth
Resurs 01 Rocket 3.2 12:06:48 25° SW 12:07:58 29° W 12:11:48 10° NW
Cosmos 1470 Rocket 4.0 12:10:14 58° WNW 12:10:14 58° WNW 12:14:26 10° N
SL-24 R/B - RUBIN 2 4.5 12:08:58 10° NW 12:15:24 65° WSW 12:16:05 61° SSW
SPOT 5 3.9 12:17:30 34° NNE 12:17:30 34° NNE 12:20:08 10° N
Spot 2 Rocket 3.7 12:16:08 63° WSW 12:16:17 64° WSW 12:21:22 10° NNW
Cosmos 921 Rocket 4.3 12:15:18 10° N 12:17:51 35° N 12:17:51 35° N
CENTAUR R/B 2.3 12:19:44 54° SW 12:21:11 81° WNW 12:27:49 10° NNE
Meteor 1-18 Rocket 4.4 12:22:12 10° N 12:27:00 64° NNE 12:27:00 64° NNE
Cosmos 2100 Rocket 4.4 12:29:08 48° NE 12:29:08 48° NE 12:33:55 10° NNE
Cosmos 2173 Rocket 4.4 12:42:07 53° NE 12:42:07 53° NE 12:46:54 10° NNE
SL-16 R/B 3.1 12:42:45 10° N 12:46:54 41° NNE 12:46:54 41° NNE
Cosmos 1763 Rocket 4.5 12:47:50 10° NNW 12:51:29 44° N 12:51:29 44° N
Cosmos 1459 Rocket 4.3 13:01:31 63° N 13:01:31 63° N 13:06:46 10° N
Cosmos 2322 Rocket 3.3 13:03:49 10° NNW 13:07:37 40° N 13:07:37 40° N
ATLAS 5 CENTAUR R/B 4.4 13:07:06 10° N 13:08:50 23° NNE 13:08:50 23° NNE
Cosmos 2360 Rocket 3.7 13:17:08 10° N 13:20:26 30° NNE 13:20:26 30° NNE
USA 234 3.7 13:27:41 56° WNW 13:27:41 56° WNW 13:32:45 10° NW
Lacrosse 5 3.8 13:23:03 10° NNW 13:25:25 27° NNW 13:25:25 27° NNW
Cosmos 1980 Rocket 4.4 13:26:56 10° WNW 13:29:32 17° W 13:29:32 17° W
Terra 4.1 13:33:23 21° NW 13:33:23 21° NW 13:35:16 10° NW
ATLAS 3B R/B 3.3 13:39:35 48° N 13:39:35 48° N 13:44:30 10° NNE
Cosmos 2333 Rocket 4.1 13:43:43 10° N 13:46:42 22° NNE 13:46:42 22° NNE
Cosmos 2219 Rocket 4.1 14:34:39 10° NNW 14:37:08 27° N 14:37:08 27° N
Cosmos 2297 Rocket 4.1 15:17:33 25° NNE 15:17:33 25° NNE 15:19:52 10° NNE
Cosmos 2237 Rocket 4.0 15:27:33 10° NNW 15:30:12 28° N 15:30:12 28° N
Resurs 1-4 Rocket 4.2 15:32:03 10° NE 15:34:05 20° NE 15:34:05 20° NE
ATLAS 3B CENTAUR R/B 4.2 15:29:11 10° WSW 15:52:36 59° SSE 16:00:35 10° ESE
SL-16 R/B 3.3 16:03:31 48° NE 16:03:31 48° NE 16:08:48 10° N
Cosmos 2227 Rocket 3.6 16:06:17 32° N 16:06:17 32° N 16:09:32 10° N
NOSS 3-1 (C) 4.5 16:12:22 37° NE 16:12:22 37° NE 16:16:00 10° NE
ADEOS II 3.8 16:12:36 10° NE 16:15:53 26° ENE 16:15:53 26° ENE
CZ-2D R/B 3.2 16:22:51 10° NNE 16:26:28 43° N 16:26:28 43° N
Cosmos 2344 4.5 16:28:10 10° NW 16:38:40 79° WSW 16:53:20 10° SSE
SJ 16-02 3.6 16:42:46 20° N 16:42:46 20° N 16:44:21 10° N
SL-16 R/B 3.0 16:38:48 10° NNW 16:42:40 45° NNW 16:42:40 45° NNW
USA 229 DEB 3.6 16:45:45 75° N 16:45:45 75° N 16:51:57 10° NNE
USA 229 3.6 16:45:51 75° N 16:45:51 75° N 16:52:01 10° NNE
Cosmos 2263 Rocket 2.9 16:51:13 46° E 16:51:13 46° E 16:55:58 10° NNE
Cosmos 1937 Rocket 4.1 16:56:23 54° NNE 16:56:23 54° NNE 17:00:30 10° NNE
NOSS 3-1 (A) 3.4 16:57:24 66° NE 16:57:24 66° NE 17:02:33 10° NNE
Cosmos 2297 Rocket 4.3 16:59:22 15° NW 16:59:22 15° NW 17:02:07 10° NNW
Meteor 1-24 Rocket 4.4 16:54:22 10° NNW 16:57:59 43° NNW 16:57:59 43° NNW
Cosmos 1898 Rocket 4.4 17:06:38 39° NNW 17:06:38 39° NNW 17:10:22 10° N
CBERS-1 4.4 17:04:02 10° N 17:08:09 58° N 17:08:09 58° N
Cosmos 1607 4.3 17:07:10 10° NW 17:12:11 52° WNW 17:12:11 52° WNW
ARIANE 5 R/B 3.0 17:09:48 10° NNE 17:14:56 53° E 17:15:18 52° ESE
Resurs 1-4 Rocket 3.6 17:11:58 10° NNW 17:15:09 25° NW 17:15:09 25° NW
Atlas Centaur 2 3.6 17:19:34 32° SSE 17:19:34 32° SSE 17:26:01 10° E
CZ-4B R/B 4.4 17:17:53 10° N 17:21:09 36° NNW 17:21:09 36° NNW
IRS-P3 4.0 17:17:34 10° NNE 17:22:54 86° NW 17:22:54 86° NW
ERS-1 4.4 17:22:42 10° NNE 17:27:40 73° ESE 17:27:51 72° ESE
USA 215 3.4 17:22:50 10° NE 17:29:15 61° NW 17:30:50 48° W
IRS-1D 4.3 17:32:15 10° N 17:36:26 37° NW 17:36:26 37° NW
OAO 2 Rocket 4.5 17:38:24 32° SE 17:38:24 32° SE 17:42:39 10° E
Meteor 1-28 Rocket 3.9 17:39:10 53° NNE 17:39:10 53° NNE 17:42:14 10° N
Delta 2 Rocket 4.4 17:42:26 34° E 17:42:26 34° E 17:44:43 10° E
IDEFIX/ARIANE 42P 2.8 17:36:51 10° NNE 17:42:00 63° E 17:43:37 42° SSE
Cosmos 1953 2.9 17:43:17 49° NNW 17:43:17 49° NNW 17:46:23 10° N
SL-16 R/B 4.1 17:48:37 19° WNW 17:48:37 19° WNW 17:51:21 10° NW
Cosmos 1943 3.7 17:42:17 10° NNW 17:47:50 59° ENE 17:53:21 10° SE
Meteor 2-14 Rocket 4.3 17:43:40 10° N 17:49:45 88° W 17:52:57 30° S
Cosmos 2266 Rocket 4.4 17:44:56 10° NNW 17:50:46 41° W 17:51:00 41° W
Cosmos 2084 3.3 17:52:54 76° S 17:53:11 83° ESE 17:57:36 10° NNE
SeaSat 1 3.7 17:49:22 10° NE 17:53:52 35° ESE 17:56:31 21° SSE
ADEOS II 3.0 17:52:09 10° N 17:56:42 30° WNW 17:56:48 30° WNW
Cosmos 1703 4.0 17:57:33 10° N 18:01:26 52° E 18:03:50 21° SSE
ATLAS CENTAUR R/B 1.2 18:01:30 71° SSW 18:01:57 89° ESE 18:06:00 10° NNE
NOSS 8 (F) 4.3 18:06:03 74° N 18:06:03 74° N 18:08:56 10° NNE
Cosmos 2298 Rocket 4.1 18:05:10 45° WSW 18:06:27 58° WNW 18:11:42 10° N
Cosmos 1606 Rocket 4.0 18:04:35 28° SSE 18:06:48 62° E 18:11:13 10° NNE
S3M 4.5 18:01:37 13° S 18:07:20 62° E 18:13:38 10° NNE
Cosmos 1602 Rocket 3.6 18:05:55 10° NNW 18:10:10 54° W 18:10:30 52° WSW
SL-08 R/B 3.6 18:09:46 44° SW 18:10:27 47° W 18:15:14 10° NNW
ATLAS 3B CENTAUR R/B 3.5 18:05:53 21° W 18:13:56 46° SSW 18:19:54 10° SE
Cosmos 1726 4.1 18:16:52 17° NW 18:16:52 17° NW 18:18:25 10° NNW
ERS-2 3.4 18:12:24 10° SE 18:15:51 42° ENE 18:19:18 10° N
COSMOS 2441 4.4 18:11:12 10° NNE 18:16:01 79° E 18:18:57 24° S
Landsat 5 4.0 18:12:32 10° SSE 18:16:20 55° ENE 18:20:16 10° N
Aureole 3 4.3 18:13:04 20° S 18:16:40 78° E 18:23:06 10° N
Nadezhda 2 Rocket 4.5 18:11:41 10° NNW 18:17:45 60° W 18:21:55 20° SSW
Meteor 1-16 Rocket 4.4 18:20:21 34° SW 18:22:11 47° WNW 18:27:28 10° N
Cosmos 1726 Rocket 3.7 18:20:19 21° S 18:23:18 76° E 18:27:45 10° N
Meteor 1-21 Rocket 4.5 18:19:46 10° NNW 18:24:59 44° W 18:27:37 26° SSW
Cosmos 1048 Rocket 4.1 18:20:36 10° NNW 18:25:46 75° ENE 18:30:57 10° SSE
Spot 4 Rocket 4.5 18:21:13 10° N 18:26:05 44° WNW 18:28:07 30° WSW
CZ-2D R/B 4.3 18:26:26 10° N 18:29:55 29° WNW 18:30:25 28° W
Meteor 1-11 4.5 18:24:17 10° N 18:30:00 72° E 18:35:39 10° SSE
NOSS 2-2 (C) 4.1 18:28:27 21° S 18:30:27 40° ESE 18:33:51 10° NE
Hubble Space Telescope 2.5 18:31:16 17° S 18:32:09 18° SSE 18:35:02 10° ESE
PSLV R/B 3.7 18:30:07 10° NNE 18:34:30 74° ESE 18:38:22 13° S
Cosmos 2263 Rocket 3.6 18:32:55 18° W 18:34:46 21° WNW 18:38:54 10° N
CZ-2C R/B 2.7 18:30:29 10° NNE 18:35:02 62° E 18:39:40 10° S
FALCON 9 DEB 4.0 18:36:41 30° SSW 18:36:41 30° SSW 18:39:00 10° SSE
OAO 3 Rocket 3.2 18:38:38 21° W 18:41:59 86° S 18:46:57 10° E
Cosmos 2228 3.3 18:40:24 24° SW 18:42:39 46° W 18:46:54 10° N
deb Chang Zheng 4 4.1 18:40:33 10° NNE 18:44:51 58° E 18:49:08 10° S
OAO 1 Rocket 4.4 18:42:32 22° WSW 18:45:59 75° S 18:51:22 10° E
SL-08 ROCKET BODY 4.3 18:45:09 10° NNW 18:51:09 69° W 18:57:01 10° S
MSX 4.3 18:46:08 10° N 18:51:34 44° WNW 18:56:01 15° SW
ARIANE 5 R/B 4.2 18:50:16 10° NNW 18:53:32 17° WNW 18:55:38 14° W
CZ-2C R/B 4.1 18:52:12 10° NNW 18:55:15 23° WNW 18:56:42 18° WSW
Lacrosse 5 rocket 4.4 18:55:22 10° SE 18:56:32 11° ESE 18:57:41 10° E
Cosmos 2058 Rocket 3.1 18:53:42 10° SSW 18:58:10 70° W 19:02:37 10° N
CZ-4B R/B 2.4 18:55:10 10° SSE 18:58:20 47° ENE 19:01:27 10° N
Cosmos 1844 Rocket 2.7 18:54:29 14° SSW 18:59:21 64° WNW 19:04:54 10° NNE
Cosmos 1758 Rocket 4.4 18:57:51 10° NNW 19:01:33 28° W 19:05:03 11° SSW
Atlas Centaur 2 3.2 19:02:10 14° WSW 19:08:18 56° S 19:16:28 10° E
H-2A R/B 2.9 19:06:22 10° SSW 19:09:52 27° W 19:13:23 10° NW
USA 281 3.3 19:03:27 10° NNE 19:09:58 71° WNW 19:16:29 10° SSW
IDEFIX/ARIANE 42P 4.4 19:18:20 10° NNW 19:21:01 14° WNW 19:23:42 10° W
OAO 2 Rocket 3.5 19:17:20 10° WSW 19:22:31 73° SSE 19:27:42 10° E
Cosmos 1455 3.5 19:19:23 10° SSE 19:23:03 44° E 19:26:45 10° NNE
Delta 2 Rocket 3.1 19:19:36 10° W 19:23:15 87° N 19:27:21 10° E
ADEOS 3.6 19:18:48 10° N 19:23:59 66° WNW 19:29:08 10° SSW
Cosmos 1300 3.9 19:21:09 10° SW 19:24:20 25° WNW 19:27:33 10° NNW
Cosmos 494 Rocket 4.3 19:23:44 10° NNW 19:28:36 43° WSW 19:33:28 10° S
CZ-4B R/B 3.7 19:26:14 10° NNE 19:29:53 88° ESE 19:33:33 10° SSW
SeaSat 1 3.6 19:27:06 10° N 19:31:12 27° WNW 19:35:17 10° WSW
In-Cosmos 22 Rocket 4.4 19:28:21 10° N 19:34:13 88° W 19:39:59 10° S
